Location: Demonte
(44.3148°N, 7.2945°E)
Time: 12:38:44
(UTC+02:00)

ISS - Visible Passes

Search period start: 26 July 2017 00:00
Search period end: 05 August 2017 00:00
Orbit: 400 x 408 km, 51.6° (Epoch: 26 July)

Date Brightness Start Highest point End Pass type
(mag) Time Alt. Az. Time Alt. Az. Time Alt. Az.
26 Jul -1.2 00:51:57 10° NW 00:54:33 22° N 00:56:44 12° NE visible
26 Jul -1.1 02:28:37 10° NW 02:29:16 14° NW 02:29:16 14° NW visible
26 Jul -3.0 22:21:53 10° WSW 22:25:04 54° NNW 22:28:16 10° NE visible
26 Jul -1.3 23:59:22 10° WNW 00:02:02 23° N 00:04:41 10° NE visible
27 Jul -1.3 01:36:20 10° NW 01:37:56 21° NNW 01:37:56 21° NNW visible
27 Jul -1.6 23:06:43 10° WNW 23:09:30 26° NNW 23:12:19 10° NE visible
28 Jul -1.5 00:43:59 10° NW 00:46:41 23° N 00:46:59 23° NNE visible
28 Jul -2.0 22:14:02 10° W 22:17:01 33° NNW 22:20:00 10° NE visible
28 Jul -1.3 23:51:32 10° NW 23:54:08 22° N 23:56:08 13° NE visible
29 Jul -0.9 01:28:05 10° NW 01:28:45 15° NW 01:28:45 15° NW visible
29 Jul -1.4 22:58:56 10° WNW 23:01:34 22° N 23:04:12 10° NE visible
30 Jul -1.6 00:35:47 10° NW 00:37:57 26° N 00:37:57 26° N visible
30 Jul -1.5 22:06:15 10° WNW 22:08:59 24° N 22:11:45 10° NE visible
30 Jul -1.7 23:43:26 10° NW 23:46:10 24° N 23:47:12 21° NE visible
31 Jul -0.6 01:19:47 10° WNW 01:19:49 10° WNW 01:19:49 10° WNW visible
31 Jul -1.5 22:50:58 10° NW 22:53:35 22° N 22:56:13 10° ENE visible
01 Aug -1.6 00:27:28 10° NW 00:29:04 25° NW 00:29:04 25° NW visible
01 Aug -1.5 21:58:23 10° NW 22:01:00 22° N 22:03:36 10° NE visible
01 Aug -2.4 23:35:08 10° NW 23:38:06 32° NNE 23:38:21 32° NNE visible
02 Aug -1.9 22:42:45 10° NW 22:45:32 26° NNE 22:47:39 14° ENE visible
03 Aug -1.4 00:19:05 10° WNW 00:20:16 20° WNW 00:20:16 20° WNW visible
03 Aug -1.7 21:50:17 10° NW 21:52:56 22° N 21:55:36 10° ENE visible
03 Aug -3.0 23:26:42 10° NW 23:29:34 49° N 23:29:34 49° N visible
04 Aug -2.6 22:34:20 10° NW 22:37:23 36° NNE 22:38:54 22° ENE visible
